Wind_Speed
33 21 24 21 17 20 19 22 26 26 20 17 16 17 18 17 14 11 7 5 4 8
32 31 25 22 25 19 20 14 27 29 25 23 22 21 21 20 18 16 12 8 9 8
33 34 31 29 27 29 19 19 26 29 28 25 24 24 21 18 19 17 17 12 10 12
35 34 35 31 31 31 29 26 27 30 30 28 27 26 25 23 19 22 18 18 15 9
35 35 34 36 31 32 33 28 29 32 31 31 29 30 29 26 19 22 21 19 14 13
37 37 37 36 37 33 34 34 34 33 34 31 32 33 32 28 24 23 23 21 18 17
39 39 39 36 36 35 35 33 33 33 34 32 32 33 32 26 24 24 22 20 18 16
39 37 35 34 34 35 33 35 33 34 32 30 30 29 29 25 24 24 22 21 20 19
37 36 36 34 33 33 33 32 31 32 31 32 31 30 31 26 24 24 24 23 20 21
37 37 36 33 33 31 33 29 30 30 28 28 27 29 29 26 23 22 23 22 21 20
35 34 34 32 32 31 28 29 27 24 24 24 25 26 22 20 25 21 18 22 22 21
32 31 31 30 30 26 25 23 21 23 24 25 22 26 22 20 20 22 23 21 19 18
27 30 29 27 23 21 20 20 20 20 22 25 24 24 22 20 17 20 22 22 25 24
28 26 25 23 22 21 20 17 18 17 18 21 24 23 24 21 21 21 20 15 15 20
Wind_Direction
214 210 218 217 207 199 207 198 193 193 194 189 194 186 192 176 179 188 204 215 265 299
206 208 210 209 219 202 216 225 195 189 189 191 198 193 202 196 182 162 177 215 231 253
202 206 209 212 215 218 212 215 190 189 188 195 200 202 206 207 193 182 177 191 234 229
203 204 205 209 210 212 211 216 192 188 190 195 202 206 206 211 215 193 193 193 212 228
202 203 205 209 209 208 207 208 208 197 197 196 200 206 209 212 214 192 197 198 192 221
202 204 207 207 208 208 207 205 207 201 200 200 199 205 209 212 218 213 209 207 193 212
203 206 207 207 207 208 207 203 205 204 205 203 202 205 208 208 220 218 213 211 202 208
206 207 207 207 208 207 208 205 206 204 208 206 201 200 201 209 217 216 216 216 214 209
203 204 205 206 207 207 209 207 207 207 206 204 205 209 208 208 211 216 219 220 223 218
198 199 200 200 203 205 208 203 206 207 208 210 210 212 214 214 210 220 222 222 223 227
195 194 192 196 200 203 205 207 203 206 205 211 211 206 211 215 218 223 233 229 226 229
188 184 186 193 197 200 205 204 203 204 207 210 206 212 205 208 226 238 236 236 229 233
176 178 185 190 190 193 190 197 206 207 207 207 211 219 222 211 219 225 223 226 232 234
176 178 179 179 183 181 189 201 204 202 203 214 221 227 228 232 223 225 222 228 239 232
Height
787 791 792 796 798 801 804 806 808 812 815 820 821 821 821 821 825 830 835 835 836 835
780 783 787 791 794 797 800 801 802 806 810 814 815 818 819 821 820 820 827 833 834 835
772 776 782 786 788 792 795 798 798 800 804 808 814 815 819 822 822 820 819 824 830 832
765 769 775 778 781 784 789 792 795 797 800 804 808 812 816 819 821 818 818 817 822 827
757 762 766 771 774 778 781 786 789 792 794 798 803 807 810 813 816 815 815 816 816 822
748 753 757 761 767 771 774 778 782 785 789 793 796 800 804 808 811 811 812 813 809 816
738 742 747 754 759 764 767 772 774 779 783 787 791 795 799 803 807 809 809 810 809 810
728 735 742 747 752 756 760 763 767 771 776 781 784 788 793 797 801 803 805 805 805 804
721 727 732 739 745 750 754 757 761 765 769 772 778 784 784 788 793 797 799 800 801 801
711 717 724 732 738 742 747 751 756 761 767 771 775 779 784 786 788 791 794 796 797 800
703 710 717 725 731 736 741 746 752 758 763 768 770 774 779 784 786 787 790 790 792 794
696 704 713 719 725 731 738 744 749 754 758 762 766 771 774 778 781 783 784 787 788 789
691 700 708 715 723 729 735 740 746 749 754 758 763 766 769 772 774 775 775 777 780 782
688 697 705 713 718 724 731 737 742 746 751 756 760 764 766 767 769 771 772 773 774 777